CW1656 Weather Reports


Display with metric or nautical units.
time (UTC)temp
F
wind
direction
speed
MPH
gust
MPH
rain 1hr
in
rain 24hr
in
rain mn
in
humidity
%
barometer
mb
20260831010023 64 169 0.0 0.0 0.00 0.04 0.04 93 1021.0
20260831004522 64 169 0.0 0.0 0.00 0.04 0.04 93 1020.8
20260831003021 64 169 0.0 1.0 0.00 0.04 0.04 92 1020.5
20260831001520 65 169 0.0 0.0 0.00 0.04 0.04 91 1020.3
20260831000020 65 169 0.0 1.0 0.00 0.04 0.04 90 1020.1
20260830234519 65 93 0.0 4.0 0.00 0.04 0.04 90 1020.0
20260830233027 66 68 0.0 3.0 0.00 0.04 0.04 90 1019.9
20260830231518 66 101 0.0 3.0 0.00 0.04 0.04 90 1019.9
20260830230022 66 208 0.0 2.0 0.00 0.04 0.04 90 1020.0
20260830224515 67 154 0.0 2.0 0.00 0.04 0.04 90 1020.1
20260830223015 67 88 0.0 1.0 0.00 0.04 0.04 91 1020.1
20260830221514 67 92 0.0 0.0 0.00 0.04 0.04 92 1020.2
20260830220022 66 59 0.0 1.0 0.00 0.04 0.04 92 1020.2
20260830214513 66 300 0.0 2.0 0.00 0.04 0.04 91 1020.1
20260830213018 66 300 0.0 2.0 0.00 0.04 0.04 91 1020.0
20260830211512 67 42 2.0 7.0 0.00 0.04 0.04 92 1020.1
20260830210020 67 138 0.0 7.0 0.00 0.04 0.04 93 1020.0
20260830204511 68 204 0.0 6.0 0.00 0.04 0.04 94 1020.2
20260830203010 68 340 0.0 3.0 0.00 0.04 0.04 94 1020.3
20260830201510 68 47 0.0 3.0 0.00 0.04 0.04 95 1020.2
20260830200008 68 292 0.0 5.0 0.00 0.04 0.04 95 1020.1
20260830194510 68 80 1.0 6.0 0.00 0.04 0.04 96 1020.1
20260830193005 68 102 0.0 2.0 0.00 0.04 0.04 97 1020.2
20260830191513 67 82 0.0 3.0 0.00 0.04 0.04 97 1020.5
20260830190002 67 44 1.0 4.0 0.00 0.04 0.04 97 1020.8
20260830184501 67 94 0.0 1.0 0.00 0.04 0.04 97 1020.8
20260830183100 66 142 0.0 1.0 0.00 0.04 0.04 97 1020.8
20260830181559 66 125 0.0 1.0 0.00 0.04 0.04 97 1020.7
20260830180059 66 100 0.0 2.0 0.00 0.04 0.04 96 1020.9
20260830174600 66 285 0.0 1.0 0.01 0.04 0.04 96 1020.9
20260830173057 66 34 0.0 2.0 0.01 0.04 0.04 96 1020.9
20260830171557 66 33 0.0 2.0 0.01 0.04 0.04 96 1020.9
20260830170056 66 11 0.0 3.0 0.02 0.04 0.04 96 1021.0
20260830164555 66 295 0.0 3.0 0.01 0.03 0.03 95 1021.2
20260830163055 66 84 0.0 4.0 0.02 0.03 0.03 95 1021.2
20260830161603 66 76 1.0 3.0 0.02 0.03 0.03 94 1021.2
20260830160053 66 346 0.0 2.0 0.02 0.02 0.02 94 1021.2
20260830154558 66 176 0.0 0.0 0.02 0.02 0.02 94 1021.3
20260830153050 65 176 0.0 0.0 0.01 0.01 0.01 93 1021.3
20260830151549 65 176 0.0 0.0 0.01 0.01 0.01 92 1021.2
20260830150049 65 176 0.0 0.0 0.00 0.00 0.00 90 1021.0
20260830144559 65 176 0.0 0.0 0.00 0.00 0.00 89 1020.9
20260830143047 65 176 0.0 0.0 0.00 0.00 0.00 88 1020.6
20260830141546 65 176 0.0 0.0 0.00 0.00 0.00 88 1020.6
20260830140046 65 176 0.0 0.0 0.00 0.00 0.00 88 1020.7
20260830134543 65 176 0.0 0.0 0.00 0.00 0.00 87 1020.4
20260830133058 65 176 0.0 0.0 0.00 0.00 0.00 86 1020.3
20260830131552 65 176 0.0 0.0 0.00 0.00 0.00 86 1020.4
20260830130057 65 176 0.0 0.0 0.00 0.00 0.00 86 1020.3
20260830124541 64 176 0.0 0.0 0.00 0.00 0.00 86 1020.6
20260830123041 64 176 0.0 0.0 0.00 0.00 0.00 87 1020.4
20260830121541 63 176 0.0 0.0 0.00 0.00 0.00 87 1020.5
20260830120058 63 176 0.0 0.0 0.00 0.00 0.00 87 1020.3
20260830114538 63 176 0.0 0.0 0.00 0.00 0.00 86 1020.5
20260830113037 63 176 0.0 0.0 0.00 0.00 0.00 86 1020.6
20260830111540 63 176 0.0 0.0 0.00 0.00 0.00 86 1020.7
20260830110036 63 176 0.0 0.0 0.00 0.00 0.00 86 1020.4
20260830104535 63 176 0.0 0.0 0.00 0.00 0.00 86 1020.6
20260830103033 63 176 0.0 0.0 0.00 0.00 0.00 85 1020.6
20260830101531 63 176 0.0 0.0 0.00 0.00 0.00 85 1020.6
20260830100032 63 176 0.0 0.0 0.00 0.00 0.00 84 1020.7
20260830094536 63 176 0.0 0.0 0.00 0.00 0.00 84 1020.8
20260830093033 63 176 0.0 0.0 0.00 0.00 0.00 84 1020.8
20260830091527 63 176 0.0 0.0 0.00 0.00 0.00 84 1020.8
20260830090026 64 176 0.0 3.0 0.00 0.00 0.00 84 1020.7
20260830084522 64 176 0.0 2.0 0.00 0.00 0.00 84 1020.9
20260830083028 64 176 0.0 2.0 0.00 0.00 0.00 84 1020.9
20260830081531 64 176 1.0 2.0 0.00 0.00 0.00 84 1021.0
20260830080019 64 176 1.0 3.0 0.00 0.00 0.00 85 1021.1
20260830074523 64 176 0.0 3.0 0.00 0.00 0.00 85 1021.1
20260830073017 64 159 1.0 2.0 0.00 0.00 0.00 85 1021.2
20260830071516 64 159 0.0 2.0 0.00 0.00 0.00 85 1021.2
20260830070015 64 159 0.0 2.0 0.00 0.00 0.00 85 1021.0
20260830064514 64 159 0.0 2.0 0.00 0.00 0.00 85 1021.2
20260830063013 64 159 1.0 3.0 0.00 0.00 0.00 86 1021.4
20260830061517 64 159 1.0 4.0 0.00 0.00 0.00 86 1021.5
20260830060027 65 137 0.0 2.0 0.00 0.00 0.00 86 1021.5
20260830054508 65 137 0.0 2.0 0.00 0.00 0.00 86 1021.5
20260830053008 65 137 0.0 2.0 0.00 0.00 0.00 85 1021.5
20260830051507 65 137 0.0 2.0 0.00 0.00 0.00 84 1021.5
20260830050007 65 137 0.0 2.0 0.00 0.00 0.00 83 1021.7
20260830044503 65 137 0.0 1.0 0.00 0.00 0.00 83 1021.6
20260830043002 65 137 0.0 1.0 0.00 0.00 0.00 83 1021.5
20260830041500 65 137 0.0 2.0 0.00 0.00 0.00 82 1021.5
20260830040058 65 137 0.0 1.0 0.00 0.00 0.00 83 1021.5
20260830034600 65 137 0.0 1.0 0.00 0.00 0.00 83 1021.5
20260830033057 65 137 0.0 1.0 0.00 0.00 0.00 83 1021.6
20260830031557 65 137 0.0 2.0 0.00 0.00 0.00 83 1021.5
20260830030056 66 137 0.0 0.0 0.00 0.00 0.00 81 1021.5
20260830024606 67 137 0.0 0.0 0.00 0.00 0.00 79 1021.6
20260830023111 67 137 0.0 0.0 0.00 0.00 0.00 80 1021.8
20260830021555 67 137 0.0 0.0 0.00 0.00 0.00 80 1021.8
20260830020055 67 137 0.0 0.0 0.00 0.00 0.00 80 1021.8
20260830014553 67 137 0.0 1.0 0.00 0.00 0.00 80 1021.8
20260830013052 67 137 0.0 0.0 0.00 0.00 0.00 81 1022.0
20260830011603 67 137 0.0 0.0 0.00 0.00 0.00 81 1021.9